IW3HBX-13 Weather Reports


Display with metric or nautical units.
time (UTC)temp
F
wind
direction
speed
MPH
gust
MPH
rain 1hr
in
rain 24hr
in
rain mn
in
humidity
%
barometer
mb
20260904023007 71 70 3.0 4.0 0.00 0.00 0.00 82 1019.4
20260904022407 71 74 2.0 3.0 0.00 0.00 0.00 82 1019.4
20260904021206 71 49 2.0 3.0 0.00 0.00 0.00 82 1019.4
20260904020607 71 51 1.0 2.0 0.00 0.00 0.00 82 1019.3
20260904015407 72 52 0.0 0.0 0.00 0.00 0.00 81 1019.2
20260904014207 72 52 0.0 0.0 0.00 0.00 0.00 81 1019.3
20260904013607 72 52 0.0 0.0 0.00 0.00 0.00 80 1019.2
20260904013007 72 52 0.0 1.0 0.00 0.00 0.00 81 1019.2
20260904012407 72 52 0.0 0.0 0.00 0.00 0.00 82 1019.2
20260904011210 72 52 0.0 0.0 0.00 0.00 0.00 82 1019.4
20260904010610 71 52 0.0 0.0 0.00 0.00 0.00 83 1019.4
20260904005410 72 52 0.0 0.0 0.00 0.00 0.00 83 1019.3
20260904004809 72 52 0.0 0.0 0.00 0.00 0.00 83 1019.3
20260904004207 72 52 0.0 0.0 0.00 0.00 0.00 82 1019.3
20260904003607 72 52 0.0 0.0 0.00 0.00 0.00 81 1019.3
20260904003008 72 52 0.0 0.0 0.00 0.00 0.00 81 1019.3
20260904002407 72 52 1.0 2.0 0.00 0.00 0.00 81 1019.4
20260904001206 73 54 0.0 0.0 0.00 0.00 0.00 82 1019.3
20260904000609 73 54 0.0 0.0 0.00 0.00 0.00 81 1019.2
20260903235410 74 54 0.0 0.0 0.00 0.00 0.00 78 1019.2
20260903234207 74 53 0.0 0.0 0.00 0.00 0.00 75 1019.3
20260903233711 74 53 0.0 0.0 0.00 0.00 0.00 75 1019.3
20260903233607 74 53 0.0 0.0 0.00 0.00 0.00 75 1019.3
20260903233007 74 53 0.0 1.0 0.00 0.00 0.00 76 1019.2
20260903232407 74 53 0.0 2.0 0.00 0.00 0.00 76 1019.1
20260903231208 74 298 0.0 0.0 0.00 0.00 0.00 77 1019.3
20260903230608 74 298 0.0 0.0 0.00 0.00 0.00 77 1019.3
20260903225407 73 300 0.0 0.0 0.00 0.00 0.00 77 1019.4
20260903224808 73 300 0.0 0.0 0.00 0.00 0.00 75 1019.4
20260903224209 74 300 0.0 0.0 0.00 0.00 0.00 77 1019.4
20260903223609 74 300 0.0 0.0 0.00 0.00 0.00 77 1019.3
20260903223007 75 300 0.0 0.0 0.00 0.00 0.00 76 1019.3
20260903222407 75 300 0.0 0.0 0.00 0.00 0.00 76 1019.3
20260903221807 75 300 0.0 0.0 0.00 0.00 0.00 71 1019.4
20260903221208 76 300 0.0 0.0 0.00 0.00 0.00 70 1019.3
20260903220607 76 300 0.0 0.0 0.00 0.00 0.00 67 1019.2
20260903215410 76 300 0.0 0.0 0.00 0.00 0.00 67 1019.2
20260903214807 76 300 0.0 0.0 0.00 0.00 0.00 69 1019.1
20260903214208 76 300 0.0 0.0 0.00 0.00 0.00 70 1018.9
20260903213610 75 300 0.0 0.0 0.00 0.00 0.00 72 1018.9
20260903213007 76 300 0.0 0.0 0.00 0.00 0.00 72 1018.9
20260903212407 76 300 0.0 0.0 0.00 0.00 0.00 73 1018.8
20260903211807 76 300 0.0 0.0 0.00 0.00 0.00 73 1018.8
20260903211209 76 300 0.0 0.0 0.00 0.00 0.00 69 1018.8
20260903210607 76 300 1.0 2.0 0.00 0.00 0.00 70 1018.9
20260903205406 77 300 0.0 0.0 0.00 0.00 0.00 67 1018.8
20260903204807 77 300 0.0 0.0 0.00 0.00 0.00 69 1018.8
20260903204227 77 300 2.0 2.0 0.00 0.00 0.00 67 1018.8
20260903204206 77 300 2.0 2.0 0.00 0.00 0.00 67 1018.8
20260903203607 77 315 0.0 1.0 0.00 0.00 0.00 69 1018.8
20260903203008 77 315 1.0 2.0 0.00 0.00 0.00 67 1018.7
20260903202407 77 315 2.0 2.0 0.00 0.00 0.00 69 1018.8
20260903201809 77 315 3.0 3.0 0.00 0.00 0.00 69 1018.7
20260903201206 79 98 2.0 2.0 0.00 0.00 0.00 67 1018.6
20260903200609 80 106 0.0 0.0 0.00 0.00 0.00 65 1018.6
20260903195410 80 106 0.0 0.0 0.00 0.00 0.00 65 1018.7
20260903194807 80 106 0.0 0.0 0.00 0.00 0.00 63 1018.6
20260903194207 80 106 0.0 0.0 0.00 0.00 0.00 63 1018.6
20260903193607 80 106 0.0 1.0 0.00 0.00 0.00 61 1018.5
20260903193006 81 106 0.0 0.0 0.00 0.00 0.00 60 1018.6
20260903192407 81 106 0.0 0.0 0.00 0.00 0.00 60 1018.5
20260903191808 81 106 0.0 1.0 0.00 0.00 0.00 60 1018.5
20260903191207 80 106 0.0 0.0 0.00 0.00 0.00 59 1018.4
20260903190606 80 107 0.0 0.0 0.00 0.00 0.00 60 1018.3
20260903185407 81 107 0.0 1.0 0.00 0.00 0.00 59 1018.3
20260903184807 81 107 0.0 0.0 0.00 0.00 0.00 59 1018.2
20260903184208 81 108 1.0 2.0 0.00 0.00 0.00 57 1018.2
20260903183608 82 119 1.0 2.0 0.00 0.00 0.00 57 1018.1
20260903183007 82 118 1.0 2.0 0.00 0.00 0.00 56 1018.1
20260903182409 82 118 0.0 1.0 0.00 0.00 0.00 54 1018.1
20260903181808 82 118 0.0 2.0 0.00 0.00 0.00 53 1018.1
20260903181207 82 116 0.0 2.0 0.00 0.00 0.00 53 1018.2
20260903180607 82 120 0.0 1.0 0.00 0.00 0.00 52 1018.1
20260903175407 83 102 0.0 1.0 0.00 0.00 0.00 50 1018.0
20260903174808 83 100 1.0 2.0 0.00 0.00 0.00 49 1017.8
20260903174209 83 98 0.0 2.0 0.00 0.00 0.00 48 1017.9
20260903173607 83 97 2.0 2.0 0.00 0.00 0.00 46 1017.9
20260903173009 84 137 2.0 3.0 0.00 0.00 0.00 46 1017.9
20260903172407 84 115 1.0 2.0 0.00 0.00 0.00 48 1017.9
20260903171808 84 117 1.0 2.0 0.00 0.00 0.00 46 1018.0
20260903171207 84 117 0.0 2.0 0.00 0.00 0.00 45 1018.0
20260903170607 85 117 1.0 2.0 0.00 0.00 0.00 44 1018.0
20260903165407 86 115 0.0 1.0 0.00 0.00 0.00 43 1018.0
20260903164809 86 147 0.0 2.0 0.00 0.00 0.00 44 1018.0
20260903164207 86 147 2.0 3.0 0.00 0.00 0.00 43 1017.9
20260903163609 86 144 1.0 2.0 0.00 0.00 0.00 43 1017.9
20260903163008 86 136 3.0 6.0 0.00 0.00 0.00 42 1017.8
20260903162408 86 144 2.0 5.0 0.00 0.00 0.00 42 1017.9
20260903161807 86 153 3.0 5.0 0.00 0.00 0.00 41 1017.9
20260903161209 86 126 1.0 2.0 0.00 0.00 0.00 41 1017.9
20260903160607 86 133 2.0 4.0 0.00 0.00 0.00 41 1018.0
20260903155407 88 145 3.0 5.0 0.00 0.00 0.00 39 1017.8
20260903154807 88 145 2.0 4.0 0.00 0.00 0.00 39 1017.8
20260903154209 88 139 1.0 3.0 0.00 0.00 0.00 39 1017.7
20260903153607 88 72 2.0 4.0 0.00 0.00 0.00 39 1017.6
20260903153007 88 135 3.0 8.0 0.00 0.00 0.00 39 1017.5
20260903152407 87 104 2.0 4.0 0.00 0.00 0.00 39 1017.5
20260903151807 88 127 3.0 9.0 0.00 0.00 0.00 40 1017.4
20260903151207 88 141 3.0 5.0 0.00 0.00 0.00 39 1017.5
20260903150607 89 126 3.0 5.0 0.00 0.00 0.00 40 1017.5
20260903145407 88 114 3.0 4.0 0.00 0.00 0.00 40 1017.5
20260903144809 88 131 3.0 5.0 0.00 0.00 0.00 40 1017.7
20260903144207 89 134 3.0 5.0 0.00 0.00 0.00 39 1017.8
20260903143608 88 142 3.0 5.0 0.00 0.00 0.00 39 1018.1
20260903143009 88 167 3.0 4.0 0.00 0.00 0.00 40 1018.0
20260903142407 90 143 2.0 4.0 0.00 0.00 0.00 39 1018.1
20260903141807 89 177 1.0 3.0 0.00 0.00 0.00 39 1018.2
20260903141210 88 141 3.0 4.0 0.00 0.00 0.00 41 1018.2
20260903140607 88 209 1.0 2.0 0.00 0.00 0.00 39 1018.3
20260903135409 90 175 3.0 5.0 0.00 0.00 0.00 38 1018.3
20260903134808 90 105 4.0 7.0 0.00 0.00 0.00 38 1018.3
20260903134207 90 116 2.0 3.0 0.00 0.00 0.00 38 1018.3
20260903133607 90 120 4.0 6.0 0.00 0.00 0.00 37 1018.2
20260903133008 89 209 3.0 3.0 0.00 0.00 0.00 37 1018.3
20260903132408 90 228 0.0 2.0 0.00 0.00 0.00 36 1018.3
20260903131807 89 145 0.0 2.0 0.00 0.00 0.00 37 1018.3
20260903131210 90 105 2.0 4.0 0.00 0.00 0.00 37 1018.3
20260903130609 89 62 2.0 2.0 0.00 0.00 0.00 38 1018.3
20260903125409 89 98 3.0 4.0 0.00 0.00 0.00 38 1018.4
20260903124807 89 121 3.0 5.0 0.00 0.00 0.00 37 1018.4
20260903124210 88 223 2.0 3.0 0.00 0.00 0.00 37 1018.5
20260903123608 89 226 2.0 4.0 0.00 0.00 0.00 37 1018.6
20260903123007 90 272 2.0 3.0 0.00 0.00 0.00 36 1018.7
20260903122410 90 208 1.0 3.0 0.00 0.00 0.00 37 1018.6
20260903121807 90 115 1.0 2.0 0.00 0.00 0.00 37 1018.7
20260903121207 89 191 1.0 4.0 0.00 0.00 0.00 37 1018.7
20260903120608 89 114 3.0 5.0 0.00 0.00 0.00 37 1018.8
20260903115410 89 67 1.0 2.0 0.00 0.00 0.00 38 1018.9
20260903114807 88 83 2.0 3.0 0.00 0.00 0.00 39 1018.9
20260903114207 86 71 1.0 2.0 0.00 0.00 0.00 38 1018.9
20260903113610 87 70 3.0 4.0 0.00 0.00 0.00 40 1019.1
20260903113007 87 238 2.0 2.0 0.00 0.00 0.00 38 1019.1
20260903112407 87 220 1.0 2.0 0.00 0.00 0.00 39 1019.1
20260903111810 87 223 2.0 4.0 0.00 0.00 0.00 39 1019.2
20260903111207 87 199 2.0 3.0 0.00 0.00 0.00 38 1019.2
20260903110609 87 69 0.0 2.0 0.00 0.00 0.00 40 1019.2
20260903105407 86 76 2.0 3.0 0.00 0.00 0.00 38 1019.3
20260903104810 86 63 1.0 3.0 0.00 0.00 0.00 40 1019.4
20260903103607 86 37 2.0 3.0 0.00 0.00 0.00 40 1019.3
20260903103008 86 79 4.0 5.0 0.00 0.00 0.00 40 1019.5
20260903102407 86 36 2.0 4.0 0.00 0.00 0.00 40 1019.6
20260903101808 85 345 1.0 2.0 0.00 0.00 0.00 41 1019.6
20260903100607 85 323 2.0 3.0 0.00 0.00 0.00 42 1019.8
20260903095410 84 53 1.0 3.0 0.00 0.00 0.00 41 1020.1
20260903094807 85 34 1.0 2.0 0.00 0.00 0.00 43 1020.1
20260903093607 85 60 2.0 3.0 0.00 0.00 0.00 43 1020.2
20260903093010 85 55 1.0 2.0 0.00 0.00 0.00 43 1020.2
20260903092410 84 57 0.0 2.0 0.00 0.00 0.00 43 1020.3
20260903091807 84 67 2.0 2.0 0.00 0.00 0.00 45 1020.3
20260903091207 84 42 2.0 4.0 0.00 0.00 0.00 46 1020.4
20260903090607 84 65 3.0 5.0 0.00 0.00 0.00 46 1020.4
20260903085407 84 59 3.0 5.0 0.00 0.00 0.00 48 1020.4
20260903084807 84 55 1.0 2.0 0.00 0.00 0.00 45 1020.4
20260903084206 83 59 2.0 5.0 0.00 0.00 0.00 49 1020.4
20260903083610 82 69 0.0 2.0 0.00 0.00 0.00 48 1020.4
20260903083007 82 63 2.0 4.0 0.00 0.00 0.00 50 1020.4
20260903082407 84 84 1.0 2.0 0.00 0.00 0.00 49 1020.1
20260903081809 82 53 1.0 3.0 0.00 0.00 0.00 50 1020.2
20260903075408 80 59 3.0 5.0 0.00 0.00 0.00 53 1020.3
20260903074807 81 328 1.0 2.0 0.00 0.00 0.00 53 1020.2
20260903074207 80 52 3.0 5.0 0.00 0.00 0.00 54 1020.3
20260903073607 80 315 2.0 3.0 0.00 0.00 0.00 56 1020.1
20260903073007 80 297 1.0 2.0 0.00 0.00 0.00 61 1020.2
20260903072407 80 309 0.0 2.0 0.00 0.00 0.00 63 1020.2
20260903071810 79 308 1.0 2.0 0.00 0.00 0.00 63 1020.1
20260903071207 78 294 2.0 3.0 0.00 0.00 0.00 61 1020.2
20260903070609 77 293 2.0 2.0 0.00 0.00 0.00 65 1020.2
20260903065408 77 293 3.0 4.0 0.00 0.00 0.00 67 1020.2
20260903064807 77 306 2.0 3.0 0.00 0.00 0.00 69 1020.0
20260903064216 77 296 2.0 3.0 0.00 0.00 0.00 69 1020.0
20260903063610 77 296 1.0 2.0 0.00 0.00 0.00 66 1020.0
20260903063013 77 52 2.0 2.0 0.00 0.00 0.00 69 1019.9
20260903063010 76 296 0.0 2.0 0.00 0.00 0.00 67 1020.0
20260903062409 77 52 2.0 2.0 0.00 0.00 0.00 69 1019.9
20260903061809 76 312 0.0 0.0 0.00 0.00 0.00 69 1019.6
20260903060607 76 78 1.0 2.0 0.00 0.00 0.00 70 1019.6
20260903055408 75 72 1.0 3.0 0.00 0.00 0.00 72 1019.5
20260903054807 75 63 0.0 1.0 0.00 0.00 0.00 73 1019.4
20260903053924 73 71 0.0 2.0 0.00 0.00 0.00 77 1019.3
20260903053607 74 70 0.0 0.0 0.00 0.00 0.00 76 1019.4
20260903053539 73 71 0.0 2.0 0.00 0.00 0.00 77 1019.3
20260903053007 73 71 0.0 2.0 0.00 0.00 0.00 77 1019.3
20260903052409 73 73 1.0 2.0 0.00 0.00 0.00 78 1019.3
20260903051810 72 60 1.0 3.0 0.00 0.00 0.00 80 1019.3
20260903051207 72 70 2.0 3.0 0.00 0.00 0.00 81 1019.2
20260903050607 71 66 1.0 3.0 0.00 0.00 0.00 80 1019.1
20260903045407 70 65 2.0 2.0 0.00 0.00 0.00 86 1019.1
20260903044808 69 65 3.0 5.0 0.00 0.00 0.00 88 1019.1
20260903044210 69 60 3.0 5.0 0.00 0.00 0.00 90 1019.1
20260903044131 69 66 3.0 5.0 0.00 0.00 0.00 90 1019.1
20260903043607 69 66 3.0 5.0 0.00 0.00 0.00 90 1019.1
20260903043207 69 66 0.0 2.0 0.00 0.00 0.00 90 1019.0
20260903043007 69 66 0.0 2.0 0.00 0.00 0.00 90 1019.0
20260903042409 69 312 0.0 2.0 0.00 0.00 0.00 90 1019.0
20260903041807 69 10 0.0 0.0 0.00 0.00 0.00 90 1018.9
20260903041210 69 10 0.0 0.0 0.00 0.00 0.00 90 1018.8
20260903040607 69 10 0.0 0.0 0.00 0.00 0.00 90 1018.8
20260903035407 69 10 0.0 0.0 0.00 0.00 0.00 90 1018.9
20260903034807 69 10 0.0 0.0 0.00 0.00 0.00 90 1018.8
20260903034208 70 10 0.0 0.0 0.00 0.00 0.00 90 1018.9
20260903033607 70 10 0.0 0.0 0.00 0.00 0.00 88 1018.9
20260903033010 70 10 0.0 0.0 0.00 0.00 0.00 87 1018.9
20260903032410 70 10 0.0 0.0 0.00 0.00 0.00 87 1018.9
20260903031807 70 10 0.0 0.0 0.00 0.00 0.00 87 1019.0
20260903031207 70 10 0.0 0.0 0.00 0.00 0.00 87 1019.0
20260903030609 70 10 0.0 0.0 0.00 0.00 0.00 88 1019.0
20260903025408 70 10 0.0 0.0 0.00 0.00 0.00 90 1019.0
20260903024807 70 10 0.0 0.0 0.00 0.00 0.00 88 1018.9
20260903024207 70 10 0.0 0.0 0.00 0.00 0.00 88 1018.9
20260903023607 70 10 0.0 0.0 0.00 0.00 0.00 88 1018.8